Tracking 30072 objects as of 14-Jan-2025
HD Live streaming from Space Station
objects crossing your sky now

FALCON 9 DEB

Track FALCON 9 DEB now!
10-day predictions


NORAD ID: 48610
Int'l Code: 2021-041BK
Perigee: 538.2 km
Apogee: 554.3 km
Inclination: 53.0 °
Period: 95.4 minutes
Semi major axis: 6917 km
RCS: Unknown
Launch date: May 15, 2021
Source: United States (US)
Launch site: AIR FORCE EASTERN TEST RANGE (AFETR)

Note: This is SATELLITE DEBRIS
Your satellite tracking list
Your tracking list is empty




NASA's NSSDC Master Catalog

Two Line Element Set (TLE):
1 48610U 21041BK  25014.13551446  .00004888  00000-0  32301-3 0  9998
2 48610  53.0246 267.7838 0011679 351.6177   8.4616 15.09044295201159
Source of the keplerian elements: AFSPC